GW5308 Weather Reports


time (UTC)temp
F
wind
direction
speed
knots
gust
knots
rain 1hr
in
rain 24hr
in
rain mn
in
humidity
%
barometer
mb
20260509151016 87 207 0.9 3.5 0.00 0.01 0.00 74 1012.9
20260509150515 87 0 0.0 1.7 0.00 0.01 0.00 76 1012.9
20260509150035 86 0 0.0 2.6 0.00 0.01 0.00 79 1012.9
20260509145516 86 245 0.0 2.6 0.00 0.01 0.00 78 1013.0
20260509145020 86 0 0.0 1.7 0.00 0.01 0.00 78 1013.0
20260509144534 86 0 0.0 1.7 0.00 0.01 0.00 78 1013.1
20260509144014 86 0 0.0 2.6 0.00 0.01 0.00 80 1013.0
20260509143514 86 0 0.0 2.6 0.00 0.01 0.00 80 1013.0
20260509143043 85 0 0.0 0.9 0.00 0.01 0.00 80 1013.0
20260509142517 85 0 0.0 1.7 0.00 0.01 0.00 81 1012.9
20260509142016 84 245 0.0 1.7 0.00 0.01 0.00 82 1012.8
20260509141533 84 260 0.0 1.7 0.00 0.01 0.00 82 1012.8
20260509141015 84 259 0.0 1.7 0.00 0.01 0.00 85 1012.7
20260509140517 82 0 0.0 1.7 0.00 0.01 0.00 86 1012.7
20260509140033 81 274 0.0 1.7 0.00 0.01 0.00 86 1012.7
20260509135517 81 223 0.0 1.7 0.00 0.01 0.00 88 1012.6
20260509135014 80 0 0.0 2.6 0.00 0.01 0.00 89 1012.7
20260509134534 80 253 0.9 2.6 0.00 0.01 0.00 88 1012.5
20260509134014 80 0 0.0 1.7 0.00 0.01 0.00 89 1012.3
20260509133518 80 0 0.0 1.7 0.00 0.01 0.00 89 1012.4
20260509133034 80 0 0.0 2.6 0.00 0.01 0.00 89 1012.3
20260509132514 80 255 0.0 2.6 0.00 0.01 0.00 90 1012.4
20260509132018 79 352 0.0 2.6 0.00 0.01 0.00 90 1012.5
20260509131531 79 270 0.0 2.6 0.00 0.01 0.00 91 1012.5
20260509131016 79 0 0.0 2.6 0.00 0.01 0.00 91 1012.5
20260509130518 78 0 0.0 0.0 0.00 0.01 0.00 93 1012.4
20260509130033 77 0 0.0 0.0 0.00 0.01 0.00 94 1012.5
20260509125523 76 0 0.0 0.0 0.00 0.01 0.00 94 1012.6
20260509125016 76 0 0.0 1.7 0.00 0.01 0.00 95 1012.6
20260509124540 76 0 0.0 1.7 0.00 0.01 0.00 95 1012.5
20260509124014 75 0 0.0 0.0 0.00 0.01 0.00 96 1012.6
20260509123515 75 0 0.0 0.0 0.00 0.01 0.00 97 1012.5
20260509123034 74 0 0.0 0.0 0.00 0.01 0.00 98 1012.5
20260509122517 74 0 0.0 0.0 0.00 0.01 0.00 98 1012.3
20260509122017 73 0 0.0 0.0 0.00 0.01 0.00 98 1012.2
20260509121549 73 0 0.0 0.0 0.00 0.01 0.00 99 1012.2
20260509121016 73 0 0.0 0.9 0.00 0.01 0.00 99 1012.4
20260509120516 73 0 0.0 0.9 0.00 0.01 0.00 99 1012.4
20260509120038 72 304 0.0 0.9 0.00 0.01 0.00 100 1012.3
20260509115514 72 0 0.0 0.9 0.00 0.01 0.00 100 1012.4
20260509115017 72 0 0.0 0.0 0.00 0.01 0.00 100 1012.3
20260509114549 71 0 0.0 0.0 0.00 0.01 0.00 100 1012.3
20260509114016 71 0 0.0 0.0 0.00 0.01 0.00 100 1012.3
20260509113516 71 0 0.0 0.0 0.00 0.01 0.00 100 1012.3
20260509113032 71 0 0.0 0.0 0.00 0.01 0.00 100 1012.4
20260509112516 71 0 0.0 0.0 0.00 0.01 0.00 100 1012.4
20260509112029 71 0 0.0 0.0 0.00 0.01 0.00 100 1012.2
20260509111531 70 0 0.0 0.0 0.00 0.01 0.00 100 1012.2
20260509111014 70 0 0.0 0.0 0.00 0.01 0.00 100 1012.0
20260509110514 70 0 0.0 0.0 0.00 0.01 0.00 100 1012.0
20260509110033 70 0 0.0 0.0 0.00 0.01 0.00 100 1012.1
20260509105516 70 0 0.0 0.0 0.00 0.01 0.00 100 1012.1
20260509105016 70 0 0.0 0.0 0.00 0.01 0.00 100 1012.1
20260509104534 70 0 0.0 0.0 0.00 0.01 0.00 100 1012.1
20260509104013 70 0 0.0 0.0 0.00 0.01 0.00 100 1012.0
20260509103515 70 0 0.0 0.0 0.00 0.01 0.00 100 1012.1
20260509103035 70 0 0.0 0.0 0.00 0.01 0.00 100 1012.1
20260509102516 70 0 0.0 0.0 0.00 0.01 0.00 100 1012.2
20260509102015 70 0 0.0 0.0 0.00 0.01 0.00 100 1012.2
20260509101537 70 0 0.0 0.0 0.00 0.01 0.00 100 1012.2
20260509101014 70 0 0.0 0.0 0.00 0.01 0.00 100 1012.1
20260509100517 70 0 0.0 0.0 0.00 0.01 0.00 100 1011.9
20260509100034 70 0 0.0 0.0 0.00 0.01 0.00 100 1011.8
20260509095515 70 0 0.0 0.0 0.00 0.01 0.00 100 1012.0
20260509095015 70 0 0.0 0.0 0.00 0.01 0.00 100 1012.1
20260509094544 70 0 0.0 0.0 0.00 0.01 0.00 100 1012.1
20260509094015 70 0 0.0 0.0 0.00 0.01 0.00 100 1012.2
20260509093518 70 0 0.0 0.0 0.00 0.01 0.00 100 1012.2
20260509093035 70 0 0.0 0.0 0.00 0.01 0.00 100 1012.2
20260509092515 70 0 0.0 0.0 0.00 0.01 0.00 100 1012.1
20260509092016 70 0 0.0 0.0 0.00 0.01 0.00 100 1012.1
20260509091534 70 0 0.0 0.0 0.00 0.01 0.00 100 1012.1
20260509091014 70 0 0.0 0.0 0.00 0.01 0.00 100 1012.0
20260509090515 70 0 0.0 0.0 0.00 0.01 0.00 100 1012.0
20260509090053 70 0 0.0 0.0 0.00 0.01 0.00 100 1012.0
20260509085514 70 0 0.0 0.0 0.00 0.01 0.00 100 1012.1
20260509085020 70 0 0.0 0.0 0.00 0.01 0.00 100 1012.1
20260509084542 70 0 0.0 0.0 0.00 0.01 0.00 100 1012.0
20260509084017 70 0 0.0 0.0 0.00 0.01 0.00 100 1012.1
20260509083516 70 0 0.0 0.0 0.00 0.01 0.00 100 1012.0
20260509083045 70 0 0.0 0.0 0.00 0.01 0.00 100 1011.9
20260509082516 70 0 0.0 0.9 0.00 0.01 0.00 100 1011.8
20260509082020 70 0 0.0 3.5 0.00 0.01 0.00 100 1011.9
20260509081540 71 0 0.0 5.2 0.00 0.01 0.00 100 1012.0
20260509081017 71 0 0.9 5.2 0.00 0.01 0.00 100 1012.0
20260509080514 71 312 0.0 2.6 0.00 0.01 0.00 100 1012.0
20260509080051 71 347 0.0 2.6 0.00 0.01 0.00 100 1012.0
20260509075514 71 0 0.0 0.9 0.00 0.01 0.00 100 1012.0
20260509075016 71 0 0.0 0.0 0.00 0.01 0.00 100 1012.0
20260509074539 71 0 0.0 0.9 0.00 0.01 0.00 100 1011.9
20260509074017 71 0 0.0 1.7 0.00 0.01 0.00 100 1011.9
20260509073516 71 335 0.0 1.7 0.00 0.01 0.00 100 1012.1
20260509073032 71 0 0.0 2.6 0.00 0.01 0.00 100 1012.0
20260509072519 71 282 0.0 2.6 0.00 0.01 0.00 100 1012.0
20260509072016 71 0 0.0 2.6 0.00 0.01 0.00 100 1012.1
20260509071534 71 0 0.0 0.9 0.00 0.01 0.00 100 1012.0
20260509071014 71 0 0.0 0.9 0.00 0.01 0.00 100 1012.1
20260509070514 71 0 0.0 1.7 0.00 0.01 0.00 100 1012.1
20260509070040 71 0 0.0 1.7 0.00 0.01 0.00 100 1012.3
20260509065519 71 0 0.0 0.0 0.00 0.01 0.00 100 1012.5
20260509065016 71 0 0.0 0.0 0.00 0.01 0.00 100 1012.7
20260509064534 71 0 0.0 0.9 0.00 0.01 0.00 100 1012.8
20260509064015 71 0 0.0 0.9 0.00 0.01 0.00 100 1012.7
20260509063515 70 322 0.0 0.9 0.00 0.01 0.00 100 1012.7
20260509063031 70 0 0.0 2.6 0.00 0.01 0.00 100 1012.8
20260509062514 70 0 0.0 2.6 0.00 0.01 0.00 100 1012.8
20260509062016 70 0 0.0 1.7 0.00 0.01 0.00 100 1012.9
20260509061535 70 0 0.0 1.7 0.00 0.01 0.00 100 1012.8
20260509061016 69 0 0.0 0.9 0.00 0.01 0.00 100 1013.0
20260509060513 69 0 0.0 0.0 0.00 0.01 0.00 100 1012.9
20260509060035 69 0 0.0 0.0 0.00 0.01 0.00 100 1012.9
20260509055517 69 0 0.0 0.0 0.00 0.01 0.00 100 1012.9
20260509055016 69 0 0.0 0.0 0.00 0.01 0.00 100 1013.0
20260509054531 68 0 0.0 0.0 0.00 0.01 0.00 100 1013.2
20260509054015 68 0 0.0 0.0 0.00 0.01 0.00 100 1013.2
20260509053515 68 0 0.0 0.0 0.00 0.01 0.00 100 1013.1
20260509053042 68 0 0.0 0.0 0.00 0.01 0.00 100 1013.2
20260509052514 69 0 0.0 0.0 0.00 0.01 0.00 100 1013.1
20260509052014 69 0 0.0 0.0 0.00 0.01 0.00 100 1013.3
20260509051539 68 0 0.0 0.0 0.00 0.01 0.00 100 1013.4
20260509051014 69 0 0.0 0.0 0.00 0.01 0.00 100 1013.3
20260509050519 69 0 0.0 0.0 0.00 0.01 0.00 100 1013.3
20260509050049 69 0 0.0 0.0 0.00 0.01 0.00 100 1013.3
20260509045515 69 0 0.0 0.0 0.00 0.01 0.00 100 1013.2
20260509045014 69 0 0.0 0.0 0.00 0.01 0.00 100 1013.4
20260509044536 68 0 0.0 0.0 0.00 0.01 0.00 100 1013.4
20260509044020 69 0 0.0 0.0 0.00 0.01 0.00 100 1013.6
20260509043516 69 0 0.0 0.0 0.00 0.01 0.00 100 1013.6
20260509043043 69 0 0.0 0.0 0.00 0.01 0.00 100 1013.7
20260509042514 69 0 0.0 0.0 0.00 0.01 0.00 100 1013.7
20260509042014 69 0 0.0 0.0 0.00 0.01 0.00 100 1013.8
20260509041538 69 0 0.0 0.0 0.00 0.01 0.00 100 1013.7
20260509041014 69 0 0.0 0.0 0.00 0.01 0.00 100 1013.7
20260509040513 69 0 0.0 0.0 0.00 0.01 0.00 100 1013.7
20260509040032 69 0 0.0 0.0 0.00 0.01 0.00 100 1013.9
20260509035514 69 0 0.0 0.0 0.00 0.01 0.01 100 1013.8
20260509035014 69 0 0.0 0.0 0.00 0.01 0.01 100 1013.9
20260509034534 69 0 0.0 0.0 0.00 0.01 0.01 100 1013.8
20260509034016 69 0 0.0 0.0 0.00 0.01 0.01 100 1013.7
20260509033519 70 0 0.0 0.0 0.00 0.01 0.01 99 1013.7
20260509033038 70 0 0.0 0.0 0.00 0.01 0.01 100 1013.9
20260509032521 70 0 0.0 0.0 0.00 0.01 0.01 100 1013.8
20260509032014 70 0 0.0 0.0 0.00 0.01 0.01 99 1013.9
20260509031534 70 0 0.0 0.0 0.00 0.01 0.01 99 1013.9
20260509031015 70 0 0.0 0.0 0.00 0.01 0.01 99 1013.9
20260509030518 70 0 0.0 0.0 0.00 0.01 0.01 99 1014.0
20260509030035 70 0 0.0 0.0 0.00 0.01 0.01 99 1014.0
20260509025514 70 0 0.0 0.0 0.00 0.01 0.01 99 1014.1
20260509025014 71 0 0.0 0.0 0.00 0.01 0.01 99 1014.0
20260509024539 71 0 0.0 0.0 0.00 0.01 0.01 99 1013.8
20260509024021 71 0 0.0 0.0 0.00 0.01 0.01 99 1013.8
20260509023515 71 0 0.0 0.0 0.00 0.01 0.01 99 1013.8
20260509023036 71 0 0.0 0.0 0.00 0.01 0.01 98 1013.7
20260509022514 71 0 0.0 0.0 0.00 0.01 0.01 99 1013.5
20260509022017 71 0 0.0 0.0 0.00 0.01 0.01 99 1013.5
20260509021534 71 0 0.0 0.0 0.00 0.01 0.01 99 1013.6
20260509021017 71 0 0.0 0.0 0.00 0.01 0.01 99 1013.6
20260509020514 71 0 0.0 0.0 0.00 0.01 0.01 99 1013.5
20260509020031 71 0 0.0 0.0 0.00 0.01 0.01 99 1013.4
20260509015514 71 0 0.0 0.0 0.00 0.01 0.01 99 1013.4
20260509015019 71 0 0.0 0.0 0.00 0.01 0.01 99 1013.3
20260509014532 71 0 0.0 0.0 0.00 0.01 0.01 99 1013.4
20260509014015 71 0 0.0 0.0 0.00 0.01 0.01 98 1013.4
20260509013515 71 0 0.0 0.0 0.00 0.01 0.01 99 1013.3
20260509013041 71 0 0.0 0.0 0.00 0.01 0.01 99 1013.5
20260509012512 71 0 0.0 0.0 0.00 0.01 0.01 99 1013.5
20260509012017 71 0 0.0 0.0 0.00 0.01 0.01 98 1013.6
20260509011531 71 0 0.0 0.0 0.00 0.01 0.01 98 1013.3
20260509011013 71 0 0.0 0.0 0.00 0.01 0.01 98 1013.1
20260509010513 71 0 0.0 0.0 0.00 0.01 0.01 98 1012.9
20260509010036 71 0 0.0 0.0 0.00 0.01 0.01 98 1012.8
20260509005513 71 0 0.0 0.0 0.00 0.01 0.01 98 1012.8
20260509005014 71 0 0.0 0.0 0.00 0.01 0.01 97 1012.7
20260509004543 71 0 0.0 0.0 0.00 0.01 0.01 97 1012.5
20260509004012 71 0 0.0 0.0 0.00 0.01 0.01 97 1012.5
20260509003515 71 0 0.0 0.0 0.01 0.01 0.01 97 1012.5
20260509003034 71 0 0.0 0.0 0.01 0.01 0.01 97 1012.5
20260509002514 72 0 0.0 1.7 0.01 0.01 0.01 96 1012.4
20260509002014 72 0 0.0 1.7 0.01 0.01 0.01 96 1012.5
20260509001533 72 26 0.0 1.7 0.01 0.01 0.01 96 1012.5
20260509001014 72 316 0.0 1.7 0.01 0.01 0.01 96 1012.4
20260509000514 72 7 0.0 1.7 0.01 0.01 0.01 95 1012.4
20260509000040 72 357 0.0 2.6 0.01 0.01 0.01 95 1012.5
20260508235513 73 256 0.0 3.5 0.01 0.01 0.01 93 1012.8
20260508235013 73 13 0.9 3.5 0.01 0.01 0.01 92 1012.3
20260508234530 74 351 0.0 4.3 0.01 0.01 0.01 90 1012.5
20260508234012 75 37 0.9 4.3 0.00 0.00 0.00 87 1012.3
20260508233521 76 23 0.9 4.3 0.00 0.00 0.00 84 1012.1
20260508233034 77 42 0.9 4.3 0.00 0.00 0.00 83 1012.3
20260508232514 77 4 0.9 5.2 0.00 0.00 0.00 83 1011.8
20260508232014 78 288 0.9 5.2 0.00 0.00 0.00 83 1011.8
20260508231538 78 18 1.7 5.2 0.00 0.00 0.00 83 1011.7
20260508231019 79 36 1.7 8.7 0.00 0.00 0.00 83 1011.6
20260508230515 80 51 2.6 8.7 0.00 0.00 0.00 83 1011.6
20260508230031 82 25 2.6 7.0 0.00 0.00 0.00 81 1011.5
20260508225513 83 44 0.9 4.3 0.00 0.00 0.00 79 1011.5
20260508225013 83 0 0.0 2.6 0.00 0.00 0.00 79 1011.3
20260508224555 83 201 0.0 5.2 0.00 0.00 0.00 79 1010.9
20260508224013 84 11 1.7 5.2 0.00 0.00 0.00 78 1010.8
20260508223514 84 140 0.9 6.1 0.00 0.00 0.00 78 1010.5
20260508223030 84 53 1.7 6.1 0.00 0.00 0.00 78 1010.3
20260508222513 85 355 0.9 5.2 0.00 0.00 0.00 78 1010.2
20260508222013 85 359 1.7 7.0 0.00 0.00 0.00 77 1010.2
20260508221539 85 272 0.9 7.0 0.00 0.00 0.00 77 1010.5
20260508221016 85 25 2.6 7.0 0.00 0.00 0.00 76 1010.4
20260508220519 85 353 1.7 6.1 0.00 0.00 0.00 77 1010.5
20260508220036 86 308 1.7 6.1 0.00 0.00 0.00 76 1010.0
20260508215514 86 56 0.9 5.2 0.00 0.00 0.00 77 1009.8
20260508215019 86 305 2.6 5.2 0.00 0.00 0.00 76 1010.0
20260508214539 86 6 1.7 5.2 0.00 0.00 0.00 76 1010.2
20260508214013 87 352 1.7 8.7 0.00 0.00 0.00 75 1010.1
20260508213513 87 15 1.7 8.7 0.00 0.00 0.00 75 1010.2
20260508213035 88 36 1.7 5.2 0.00 0.00 0.00 73 1010.3
20260508212514 88 2 1.7 4.3 0.00 0.00 0.00 73 1010.2
20260508212015 88 278 0.9 6.1 0.00 0.00 0.00 74 1010.2
20260508211533 88 72 2.6 6.1 0.00 0.00 0.00 74 1010.1
20260508211015 89 345 1.7 6.1 0.00 0.00 0.00 72 1010.2
20260508210513 89 53 1.7 6.1 0.00 0.00 0.00 74 1010.1
20260508210033 88 0 0.9 6.1 0.00 0.00 0.00 74 1010.2
20260508205513 88 13 1.7 6.1 0.00 0.00 0.00 74 1010.3
20260508205015 87 54 1.7 6.1 0.00 0.00 0.00 75 1010.3
20260508204535 87 37 1.7 7.0 0.00 0.00 0.00 75 1010.3
20260508204013 88 58 2.6 7.0 0.00 0.00 0.00 73 1010.3
20260508203522 88 15 1.7 4.3 0.00 0.00 0.00 72 1010.1
20260508203035 89 252 0.0 5.2 0.00 0.00 0.00 70 1010.1
20260508202515 90 0 1.7 5.2 0.00 0.00 0.00 69 1010.1
20260508202016 90 328 0.9 4.3 0.00 0.00 0.00 69 1010.3
20260508201537 90 17 0.9 3.5 0.00 0.00 0.00 70 1010.2
20260508201014 89 330 0.9 3.5 0.00 0.00 0.00 70 1010.3
20260508200514 88 0 0.0 3.5 0.00 0.00 0.00 71 1010.6
20260508200044 88 299 0.9 3.5 0.00 0.00 0.00 70 1010.7
20260508195516 89 59 0.9 3.5 0.00 0.00 0.00 70 1010.7
20260508195014 89 349 0.9 2.6 0.00 0.00 0.00 70 1010.9
20260508194531 89 255 0.0 1.7 0.00 0.00 0.00 68 1011.0
20260508194015 90 299 0.0 1.7 0.00 0.00 0.00 66 1011.0
20260508193511 90 0 0.0 2.6 0.00 0.00 0.00 66 1011.1
20260508193037 90 65 0.0 5.2 0.00 0.00 0.00 66 1011.2
20260508192520 90 21 0.9 5.2 0.00 0.00 0.00 65 1011.3
20260508192016 91 37 0.0 2.6 0.00 0.00 0.00 66 1011.3
20260508191535 90 309 0.0 5.2 0.00 0.00 0.00 66 1011.4
20260508191016 91 324 1.7 5.2 0.00 0.00 0.00 66 1011.5
20260508190517 92 18 1.7 6.1 0.00 0.00 0.00 64 1011.6
20260508190033 92 42 1.7 6.1 0.00 0.00 0.00 64 1011.6
20260508185516 92 124 0.0 4.3 0.00 0.00 0.00 64 1011.7
20260508185015 93 67 1.7 4.3 0.00 0.00 0.00 62 1011.9
20260508184536 93 220 0.0 3.5 0.00 0.00 0.00 60 1011.8
20260508184018 93 131 0.9 3.5 0.00 0.00 0.00 59 1011.9
20260508183515 92 0 0.0 2.6 0.00 0.00 0.00 59 1012.0
20260508183031 93 0 0.9 3.5 0.00 0.00 0.00 58 1012.2
20260508182515 93 208 0.9 3.5 0.00 0.00 0.00 56 1012.3
20260508182015 93 0 0.9 2.6 0.00 0.00 0.00 57 1012.4
20260508181548 94 263 0.0 0.9 0.00 0.00 0.00 59 1012.4
20260508181017 93 200 0.0 3.5 0.00 0.00 0.00 60 1012.4
20260508180514 93 246 0.9 3.5 0.00 0.00 0.00 59 1012.6
20260508180034 94 236 0.0 1.7 0.00 0.00 0.00 57 1012.7
20260508175516 94 0 0.0 1.7 0.00 0.00 0.00 57 1012.8
20260508175016 93 126 0.0 2.6 0.00 0.00 0.00 60 1013.0
20260508174534 93 296 0.0 2.6 0.00 0.00 0.00 61 1013.0
20260508174019 92 238 0.0 2.6 0.00 0.00 0.00 61 1012.8
20260508173517 92 153 0.9 2.6 0.00 0.00 0.00 60 1012.9
20260508173036 91 204 0.9 2.6 0.00 0.00 0.00 63 1013.0
20260508172515 92 261 0.0 3.5 0.00 0.00 0.00 62 1013.2
20260508172015 91 234 0.9 3.5 0.00 0.00 0.00 63 1013.2
20260508171536 91 316 0.0 3.5 0.00 0.00 0.00 63 1013.3
20260508171019 91 0 0.0 3.5 0.00 0.00 0.00 64 1013.5
20260508170516 91 331 0.0 3.5 0.00 0.00 0.00 66 1013.6
20260508170032 90 0 0.9 3.5 0.00 0.00 0.00 65 1013.6
20260508165515 89 167 0.0 1.7 0.00 0.00 0.00 68 1013.7
20260508165017 89 184 0.0 2.6 0.00 0.00 0.00 69 1013.7
20260508164534 89 0 0.0 2.6 0.00 0.00 0.00 69 1013.8
20260508164016 89 207 0.0 1.7 0.00 0.00 0.00 67 1013.8
20260508163514 90 227 0.0 1.7 0.00 0.00 0.00 66 1013.9
20260508163034 90 12 0.0 1.7 0.00 0.00 0.00 68 1013.9
20260508162517 90 208 0.0 2.6 0.00 0.00 0.00 68 1014.0
20260508162016 90 0 0.0 2.6 0.00 0.00 0.00 68 1014.0
20260508161538 89 244 0.0 1.7 0.00 0.00 0.00 71 1014.1
20260508161017 88 338 0.0 1.7 0.00 0.00 0.00 71 1014.2
20260508160519 87 0 0.0 1.7 0.00 0.00 0.00 72 1014.3
20260508160036 87 2 0.9 1.7 0.00 0.00 0.00 71 1014.5
20260508155516 88 235 0.0 1.7 0.00 0.00 0.00 72 1014.5
20260508155015 87 0 0.0 1.7 0.00 0.00 0.00 72 1014.5
20260508154534 87 226 0.0 2.6 0.00 0.00 0.00 73 1014.5
20260508154013 86 359 0.0 3.5 0.00 0.00 0.00 74 1014.6
20260508153515 87 349 0.9 3.5 0.00 0.00 0.00 73 1014.7
20260508153035 87 315 1.7 3.5 0.00 0.00 0.00 73 1014.7
20260508152513 87 204 0.0 2.6 0.00 0.00 0.00 77 1014.7
20260508152016 86 169 0.9 3.5 0.00 0.00 0.00 75 1014.7
20260508151542 86 208 0.9 3.5 0.00 0.00 0.00 76 1014.8